Home > Weather > Sitka > Past weeks

Flag for USA Past Weather in Sitka, Alaska, USA — Yesterday and Last 2 Weeks

Now
56 °F

Light rain. Fog.


Feels Like: 56 °F
Forecast: 54 / 62 °F
Wind: 3 mph from Southeast

Location: Sitka Airport

Current Time: Jul 30, 2016 at 1:17:04 AM

Latest Report: Jul 29, 2016 at 11:53 PM


Visibility: 4 mi

Pressure: 30.15 "Hg

Humidity: 93%

Dew Point: 54 °F

Location of SitkaLocation

Past Weather in Sitka — Graph

°F

Sitka Temperature Yesterday

Maximum temperature yesterday: 59 °F (at 11:53 AM)
Minimum temperature yesterday: 54 °F (at 2:53 AM)
Average temperature yesterday: 56 °F

High & Low Weather Summary for the Past Weeks

 TemperatureHumidityPressure
High69 °F (Jul 18, 5:53 PM)97% (Jul 29, 5:53 PM)30.36 "Hg (Jul 29, 5:53 PM)
Low54 °F (Jul 25, 4:53 AM)68% (Jul 18, 5:53 PM)29.71 "Hg (Jul 23, 7:53 AM)
Average58 °F86%30.05 "Hg
* Reported Jul 14 11:53 PM — Jul 29 11:53 PM, Sitka, Weather by CustomWeather, © 2016

Note: Actual official high and low records may vary slightly from our data, if they occured in-between our weather recording intervals... More about our weather records

Advertising

Sitka Weather History for the Previous 24 Hours

Scroll right to see more
 ConditionsComfort  
Time TempWeatherWind HumidityBarometerVisibility
11:53 PM
Fri, Jul 29
56 °FLight rain. Fog.3 mph93%30.15 "Hg4 mi
10:53 PM56 °FMostly cloudy.3 mph93%30.15 "Hg10 mi
9:53 PM56 °FCloudy.5 mph93%30.15 "Hg10 mi
8:53 PM57 °FMostly cloudy.3 mph93%30.15 "Hg10 mi
8:02 PM57 °FMore clouds than sun.3 mph90%30.15 "Hg10 mi
7:53 PM56 °FMostly cloudy.5 mph93%30.14 "Hg10 mi
6:53 PM56 °FFog.3 mph93%30.16 "Hg4 mi
5:53 PM56 °FFog.No wind97%30.16 "Hg2 mi
4:53 PM57 °FLight rain. Fog.5 mph90%30.16 "Hg4 mi
3:53 PM57 °FRain. Fog.No wind90%30.17 "Hg2 mi
2:53 PM57 °FLight rain. Mostly cloudy.8 mph87%30.18 "Hg8 mi
1:53 PM57 °FLight rain. Fog.12 mph87%30.19 "Hg5 mi
12:53 PM58 °FLight rain. Mostly cloudy.9 mph84%30.19 "Hg10 mi
11:53 AM59 °FPartly sunny.8 mph81%30.19 "Hg10 mi
10:53 AM58 °FOvercast.8 mph87%30.19 "Hg9 mi
9:53 AM58 °FMore clouds than sun.7 mph90%30.19 "Hg9 mi
8:53 AM57 °FMostly cloudy.9 mph90%30.18 "Hg8 mi
8:02 AM56 °FLight rain. Fog.6 mph93%30.18 "Hg2 mi
7:56 AM56 °FRain. Fog.6 mph93%30.18 "Hg2 mi
6:53 AM55 °FLight rain. Mostly cloudy.7 mph93%30.18 "Hg9 mi
5:53 AM55 °FMostly cloudy.6 mph90%30.17 "Hg10 mi
4:53 AM55 °FMostly cloudy.3 mph90%30.19 "Hg10 mi
3:53 AM54 °FLight rain. Fog.5 mph93%30.19 "Hg5 mi
3:02 AM54 °FLight rain. Overcast.5 mph93%30.19 "Hg8 mi
2:53 AM54 °FLight rain. Fog.5 mph93%30.19 "Hg3 mi
1:53 AM55 °FRain. Fog.6 mph90%30.20 "Hg2 mi
Weather by CustomWeather, © 2016

See weather overviewHow to use our weather pages